SWR187 KLAX-LSZH

Flight info

Callsign SWR187
Flight time N/A
Altitude 33000
Route OSHNN1 BEALE Q842 WINEN DCT MLF DCT FBR DCT DIK Q945 SEGAP DCT 55N096W 60N094W 65N087W/N0484F350 68N070W/M084F350 DCT BOPUT DCT 70N050W 70N040W 70N030W 69N020W 67N010W/M084F370 DCT ISVIG/N0479F370 DCT ATNAK DCT GREFI DCT ASBON DCT TUSUK DCT LAMGO/N0486F270 T721 RILAX
Aircraft B77W/H-SDE1E2E3FGHIJ2J3J4J5M1RWXY/LB1D1

Departure

Time 2026-04-25 20:38
Airport Los Angeles International Airport (KLAX)

Arrival

Time N/A
Airport Zürich Airport (LSZH)
Time Latitude Longitude Altitude Speed Heading
2026-04-25 20:14 33.94175 -118.41120 130 ft 0 kts 82°
2026-04-25 20:28 33.94172 -118.41149 128 ft 4 kts 83°
2026-04-25 20:28 33.94170 -118.41177 125 ft 4 kts 80°
2026-04-25 20:29 33.94160 -118.41200 125 ft 4 kts 17°
2026-04-25 20:29 33.94134 -118.41202 125 ft 4 kts 352°
2026-04-25 20:29 33.94125 -118.41200 125 ft 0 kts 353°
2026-04-25 20:32 33.94135 -118.41202 125 ft 7 kts 353°
2026-04-25 20:32 33.94225 -118.41216 125 ft 15 kts 352°
2026-04-25 20:32 33.94337 -118.41232 127 ft 16 kts 353°
2026-04-25 20:32 33.94450 -118.41249 128 ft 16 kts 353°
2026-04-25 20:33 33.94564 -118.41266 128 ft 16 kts 353°
2026-04-25 20:33 33.94676 -118.41283 127 ft 16 kts 353°
2026-04-25 20:33 33.94786 -118.41271 125 ft 16 kts 40°
2026-04-25 20:33 33.94804 -118.41205 125 ft 12 kts 83°
2026-04-25 20:34 33.94817 -118.41075 126 ft 12 kts 83°
2026-04-25 20:34 33.94826 -118.40977 127 ft 12 kts 83°
2026-04-25 20:34 33.94837 -118.40864 130 ft 18 kts 83°
2026-04-25 20:34 33.94854 -118.40714 130 ft 18 kts 83°
2026-04-25 20:35 33.94868 -118.40563 129 ft 18 kts 83°
2026-04-25 20:35 33.94884 -118.40413 129 ft 18 kts 82°
2026-04-25 20:35 33.94900 -118.40265 127 ft 13 kts 84°
2026-04-25 20:35 33.94919 -118.40197 126 ft 9 kts 48°
2026-04-25 20:36 33.94997 -118.40188 127 ft 11 kts 338°
2026-04-25 20:36 33.95013 -118.40235 125 ft 0 kts 263°
2026-04-25 20:36 33.95013 -118.40236 125 ft 1 kts 263°
2026-04-25 20:37 33.94989 -118.40458 126 ft 63 kts 263°
2026-04-25 20:37 33.94905 -118.41280 126 ft 133 kts 263°
2026-04-25 20:37 33.94761 -118.42637 136 ft 189 kts 264°
2026-04-25 20:37 33.94642 -118.44281 521 ft 198 kts 260°
2026-04-25 20:38 33.94498 -118.45941 1198 ft 201 kts 260°
2026-04-25 20:38 33.94296 -118.47612 1792 ft 206 kts 264°
2026-04-25 20:38 33.94227 -118.49405 2049 ft 228 kts 266°
2026-04-25 20:38 33.94198 -118.51374 2398 ft 237 kts 265°
2026-04-25 20:39 33.94067 -118.53369 2973 ft 243 kts 263°
2026-04-25 20:39 33.93892 -118.55402 3612 ft 245 kts 263°
2026-04-25 20:39 33.93722 -118.57451 4271 ft 247 kts 264°
2026-04-25 20:39 33.93610 -118.58829 4646 ft 251 kts 264°
2026-04-25 20:40 33.93248 -118.61653 4955 ft 260 kts 245°
2026-04-25 20:40 33.92304 -118.63178 5033 ft 257 kts 217°
2026-04-25 20:40 33.90666 -118.64068 5504 ft 263 kts 193°
2026-04-25 20:40 33.88826 -118.64198 6066 ft 270 kts 180°
2026-04-25 20:41 33.86932 -118.64051 6634 ft 275 kts 178°
2026-04-25 20:41 33.85022 -118.63868 7277 ft 275 kts 174°
2026-04-25 20:41 33.83210 -118.63115 7789 ft 282 kts 149°
2026-04-25 20:41 33.81590 -118.61775 8324 ft 285 kts 148°
2026-04-25 20:42 33.79950 -118.60422 8975 ft 286 kts 148°
2026-04-25 20:42 33.78305 -118.59071 9647 ft 287 kts 149°
2026-04-25 20:42 33.76650 -118.57717 10239 ft 291 kts 149°
2026-04-25 20:42 33.74928 -118.56316 10475 ft 309 kts 150°
2026-04-25 20:43 33.73090 -118.54828 10641 ft 329 kts 150°
2026-04-25 20:43 33.71139 -118.53235 10795 ft 348 kts 147°
2026-04-25 20:43 33.69436 -118.51050 10940 ft 374 kts 123°
2026-04-25 20:43 33.68431 -118.48109 11324 ft 388 kts 112°
2026-04-25 20:44 33.67570 -118.44997 11853 ft 397 kts 112°
2026-04-25 20:44 33.66675 -118.41835 12541 ft 402 kts 114°
2026-04-25 20:44 33.65747 -118.38655 13274 ft 407 kts 115°
2026-04-25 20:44 33.64799 -118.35435 13949 ft 410 kts 114°
2026-04-25 20:45 33.64241 -118.32023 14391 ft 429 kts 95°
2026-04-25 20:45 33.64361 -118.28423 14932 ft 435 kts 91°
2026-04-25 20:45 33.64470 -118.24780 15609 ft 437 kts 93°
2026-04-25 20:45 33.64677 -118.21148 16148 ft 443 kts 81°
2026-04-25 20:46 33.65825 -118.17664 16596 ft 456 kts 58°
2026-04-25 20:46 33.67856 -118.14740 17262 ft 459 kts 39°
2026-04-25 20:46 33.70384 -118.12429 17915 ft 459 kts 34°
2026-04-25 20:46 33.72990 -118.10176 18467 ft 464 kts 34°
2026-04-25 20:47 33.75617 -118.07902 19012 ft 468 kts 34°
2026-04-25 20:47 33.78261 -118.05584 19542 ft 472 kts 35°
2026-04-25 20:47 33.80917 -118.03223 20058 ft 477 kts 35°